Other Public Products
Issued by NWS Grand Forks, ND

Home | Current Version | Previous Version | Graphics & Text | Print | Product List | Glossary On
Versions: 1 2 3 4 5 6 7 8 9 10 11 12 13 14 15 16 17 18 19 20 21 22 23 24 25 26 27 28 29 30 31 32 33 34 35 36 37 38 39 40 41 42 43 44 45 46 47 48 49 50
000
FPUS83 KFGF 070431
OPUFGF
PRAIRIE TO PINES WEATHER ROUNDUP
NATIONAL WEATHER SERVICE EASTERN NORTH DAKOTA/GRAND FORKS ND
1100 PM CDT WED MAY 06 2015

 **SATELLITE DATA USED TO AUGMENT SKY COVER AT AUTOMATED STATIONS**
 *****  WEATHER ACROSS EASTERN NORTH DAKOTA  *****

CITY           SKY/WX    TMP DP  RH WIND       PRES   REMARKS
GRAND FORKS    CLOUDY    63  60  90 SE14      29.65F
GRAND FORKS AF CLOUDY    60  58  93 SE9       29.65F
GRAND CITY NWS   N/A     61 N/A N/A SE14        N/A
BUXTON           N/A     63  62  97 CALM        N/A
DEVILS LAKE    CLOUDY    59  55  88 SE13      29.62F
FARGO          MOCLDY    65  61  87 SE16G25   29.67S
WAHPETON ARPT  MOCLDY    61  55  82 S12       29.70S
$$

 *****  WEATHER ACROSS CENTRAL AND WESTERN NORTH DAKOTA  *****

CITY           SKY/WX    TMP DP  RH WIND       PRES   REMARKS
JAMESTOWN      MOCLDY    61  59  93 SE14      29.61S
BISMARCK       CLOUDY    61  57  87 NW6       29.62S
MINOT          LGT RAIN  58  56  93 NW16      29.66R
MINOT AFB      DRIZZLE   58  58 100 NW13      29.65R
GARRISON         N/A     58  57  97 N14G20    29.65R
WILLISTON      CLOUDY    52  48  86 N13       29.76R
DICKINSON      LGT RAIN  49  47  93 NW20G31   29.70R
HETTINGER      LGT RAIN  50  48  93 N22G32    29.70R FOG
$$

 *****  OTHER OBSERVATIONS NORTHEAST NORTH DAKOTA  *****

CITY           SKY/WX    TMP DP  RH WIND       PRES   REMARKS
WALHALLA       CLOUDY    59  59 100 S10       29.67F FOG
LANGDON        CLOUDY    57  57 100 E15       29.67S FOG
CAVALIER       CLOUDY    59  59 100 E13       29.66F
GRAFTON        CLOUDY    61  61 100 SE9       29.66F
CANDO          CLOUDY    57  57 100 E10       29.64F FOG
FORT TOTTEN      N/A     59  59 100 SE7       29.95S
ROLLA          NOT AVBL
RUGBY          NOT AVBL
 ***** THE ABOVE OBSERVATIONS ARE NON NWS ARE NOT QUALITY
        CONTROLLED AND MAY MIS-REPORT RAIN FOR SNOW...
$$

 *****  OTHER OBSERVATIONS SOUTHEAST NORTH DAKOTA *****

CITY           SKY/WX    TMP DP  RH WIND       PRES   REMARKS
COOPERSTOWN    NOT AVBL
VALLEY CITY    MOCLDY    63  63 100 SE13G18   29.64S
OAKES            N/A     61  61 100 S12       29.65S
GWINNER          N/A     63  63 100 SE10      29.68S
SHEYENNE NWR     N/A     63  61  94 SE10      29.95S
BUFFALO        NOT AVBL
WYNDMERE       NOT AVBL
 ***** THE ABOVE OBSERVATIONS ARE NON NWS ARE NOT QUALITY
       CONTROLLED AND MAY MIS-REPORT RAIN FOR SNOW...
$$

  *****  WEATHER ACROSS NORTHERN MINNESOTA  *****

CITY           SKY/WX    TMP DP  RH WIND       PRES   REMARKS
FLAG ISLAND      N/A     57  55  94 E10G16    29.76F
WARROAD        CLOUDY    59  55  88 SE17      29.76F
ROSEAU         CLOUDY    61  55  82 SE16      29.73F
HALLOCK        LGT RAIN  63  59  88 SE17      29.67F
THF RVR FALLS  CLOUDY    63  57  82 SE16      29.71F
HALSTAD          N/A     64  61  90 S16         N/A
FOSSTON        CLOUDY    61  57  88 SE12      29.74S
BAUDETTE       CLOUDY    59  55  87 SE14      29.79F
WASKISH        RAIN      61  55  82 SE12      29.79F
CROOKSTON      CLOUDY    63  61  94 SE16      29.68F
$$
  *****  WEATHER ACROSS CENTRAL AND WEST MINNESOTA  *****

CITY           SKY/WX    TMP DP  RH WIND       PRES   REMARKS
BEMIDJI        DRIZZLE   59  57  94 SE10G17   29.79F
PARK RAPIDS    CLOUDY    63  60  90 SE12      29.78F
WADENA         CLOUDY    61  61 100 SE10      29.77S FOG
DETROIT LAKES  MOCLDY    63  59  88 SE12      29.75S
MOORHEAD       MOCLDY    64  61  88 S18       29.70R
FERGUS FALLS   CLOUDY    64  59  82 S15       29.73F
ELBOW LAKE     CLOUDY    63  59  85 SE10      29.73F
MORRIS MN      CLOUDY    64  59  82 SE12      29.73S
STAPLES        CLOUDY    63  61  94 SE8       29.79F
WHEATON        CLEAR     61  57  88 SE14      29.72S
$$
  *****  WEATHER ELSEWHERE ACROSS MINNESOTA  *****

CITY           SKY/WX    TMP DP  RH WIND       PRES   REMARKS
DULUTH         MOCLDY    55  43  63 E12       29.92S
INTRNTL FALLS  LGT RAIN  58  56  93 SE8       29.85F
ELY            MOCLDY    57  46  67 SE12      29.92S
CLOQUET        MOCLDY    50  36  57 E7        29.91F
BRAINERD       CLOUDY    64  59  83 SE10      29.82F
HIBBING        CLOUDY    58  49  72 SE8       29.89S
ALEXANDRIA     MOCLDY    63  58  83 SE9       29.78S
SAINT CLOUD    CLOUDY    66  61  84 SE13G20   29.81F
MINNEAPOLIS    CLOUDY    67  60  78 SE10      29.86F
$$

  *****  WEATHER ACROSS SOUTH DAKOTA  *****

CITY           SKY/WX    TMP DP  RH WIND       PRES   REMARKS
SIOUX FALLS    RAIN      64  60  87 SE22G29   29.67F
BROOKINGS      MOCLDY    63  59  88 SE18G26   29.70F
WATERTOWN      PTCLDY    63  59  87 SE17G24   29.69F
HURON          LGT RAIN  61  60  97 S13G20    29.64F
SISSETON         N/A     62  60  93 S12       29.68S
ABERDEEN       LGT RAIN  61  58  90 S13       29.65R
MITCHELL       LGT RAIN  64  62  93 S15       29.62S
PIERRE         CLOUDY    58  55  90 NE6       29.61S
MOBRIDGE       CLOUDY    60  59  96 CALM      29.60R
RAPID CITY     CLOUDY    50  46  86 NW30G39   29.72R
$$

  *****  SOME WEATHER IN NEARBY STATES *****

CITY           SKY/WX    TMP DP  RH WIND       PRES   REMARKS
GLASGOW MT     PTCLDY    51  32  48 NW14      29.88R
GREAT FALLS MT CLEAR     46  26  45 NE13      29.98R
CHEYENNE WY    LGT RAIN  42  40  92 N14G23    29.84R
SCOTTSBLUFF NE CLOUDY    50  45  83 NW23G30   29.78R
OMAHA NE       TSTM      65  60  84 W6        29.75S
DES MOINES IA  MOCLDY    69  58  67 SE15      29.87F
DAVENPORT IA   MOCLDY    67  59  75 SE8       30.00S
CHICAGO IL     PTCLDY    56  50  80 NE6       30.07S
EAU CLAIRE WI  CLOUDY    63  60  90 SE8       29.95S
LA CROSSE WI   CLOUDY    68  59  73 S8        29.95F
$$

  *****  SOME NATIONAL WEATHER *****

CITY           SKY/WX    TMP DP  RH WIND       PRES   REMARKS
LA GUARDIA NY  CLEAR     60  45  57 S5        30.24S
RALEIGH NC     CLOUDY    66  53  63 SE7       30.17S
ATLANTA GA     PTCLDY    70  53  54 CALM      30.14S
NEW ORLEANS LA PTCLDY    73  66  78 SE8       30.04R
OKLAHOMA CITY  CLOUDY    65  60  84 E18G24    29.86F
ALBUQUERQUE NM MOCLDY    60  40  47 E6        29.89R
SALT LAKE CITY HVY RAIN  49  47  93 N13       29.74F FOG
LOS ANGELES CA PTCLDY    58  52  80 W10       29.86R
BOISE ID       MOCLDY    54  25  32 NW13      29.80R
SEATTLE WA     PTCLDY    53  39  59 N5        30.12R
$$

*** WEATHER ACROSS MANITOBA...SASKATCHEWAN AND ONTARIO ***
                ***ONTARIO***

CITY           SKY/WX    TMP DP  RH WIND       PRES   REMARKS
GERALDTON      MOCLDY    52  28  40 SE2       30.06F
THUNDER BAY    PTCLDY    46  34  61 E6        30.02F
SIOUX LOOKOUT  LGT RAIN  61  54  77 S7        29.91R
TORONTO        PTCLDY    57  34  41 CALM      30.20S
BIG TROUT LK   MOCLDY    39  25  56 E10G18    29.97F
PICKLE LAKE    NOT AVBL
DRYDEN         CLOUDY    61  55  82 SE10      29.87F
KENORA         LGT RAIN  59  57  94 SE9       29.83F
$$
                *** MANITOBA***

CITY           SKY/WX    TMP DP  RH WIND       PRES   REMARKS
BRANDON        CLOUDY    59  57  94 SE7       29.67F
DAUPHIN        LGT RAIN  57  57 100 E2        29.68F FOG
ISLAND LAKE    LGT RAIN  45  39  81 E7        29.80
PILOT MOUND      N/A     57  55  94 E8          N/A
THE PAS        DRIZZLE   32  32 100 N10G17    29.84R WCI  24
THOMPSON       LGTSLEET  25  21  86 NE16G26   29.98S WCI  12
WINNIPEG       LGT RAIN  61  59  94 SE13G18   29.72F
LYNN LAKE      FLURRIES  23  21  93 NE15G21   30.06F WCI  10
CHURCHILL      MOCLDY    21 N/A N/A NE12        N/A  WCI   9
GILLAM         FRZ DRZL  23  19  86 NE17G31   30.08F WCI   9
$$
                ***SASKATCHEWAN***

CITY           SKY/WX    TMP DP  RH WIND       PRES   REMARKS
ESTEVAN        LGT RAIN  52  48  87 NW17G24   29.74S
KINDERSLEY     CLOUDY    39  28  65 NW17G26   30.00R
LLOYDMINSTER   FLURRIES  34  30  86 NW12      30.00R
PRINCE ALBERT  CLOUDY    39  37  93 N7        29.89R
REGINA         CLOUDY    48  41  76 N21G26    29.84R


USA.gov is the U.S. government's official web portal to all federal, state and local government web resources and services.